contact:dominique.lefevre@mio.osupytheas.fr, maurice.libes@osupytheas.fr, didier.mallarino@osupytheas.fr
Project:EMSO http://www.emso-fr.org/EMSO-France
Depth: 2436.0 m
Title:EMSO Ligure Ouest : Data MII capteur AQUADOPP
Date,Latitude,Longitude,X_East,Y_North,Z_Up,Amplitude_X,Amplitude_Y,Amplitude_Z,Batterie,SoundSpeed,Heading,Pitch,Roll,Pressure,TIS,Speed,Direction
, degrees North, degrees East, m.s-1, m.s-1,m.s-1, 1, 1, 1, Volt, m.s-1, degree, degree, degree, dbar, degree_C, m.s-1, degree
2019-09-15T00:09:04,42.805,6.029,0.015,-0.024,0.009,100.0,102.0,98.0,13.3,1505.2,327.9,-0.7,1.8,2470.187,13.29,0.028,148.0
2019-09-15T00:12:05,42.805,6.029,-0.032,-0.041,-0.023,101.0,101.0,97.0,13.4,1505.2,326.9,-0.7,1.8,2470.124,13.3,0.052,218.0
2019-09-15T00:15:06,42.805,6.029,-0.039,-0.009,-0.042,100.0,102.0,99.0,13.4,1505.3,327.2,-0.7,1.8,2470.179,13.31,0.04,257.0
2019-09-15T00:18:07,42.805,6.029,-0.054,0.006,-0.041,99.0,101.0,97.0,13.3,1505.3,326.6,-0.7,1.8,2470.139,13.32,0.054,276.3
2019-09-15T00:21:08,42.805,6.029,-0.066,-0.026,-0.052,101.0,104.0,98.0,13.3,1505.3,326.6,-0.7,1.9,2470.133,13.32,0.07,248.5
2019-09-15T00:24:09,42.805,6.029,-0.005,-0.024,0.0,100.0,103.0,98.0,13.4,1505.3,325.3,-0.7,1.9,2470.177,13.33,0.024,191.8
2019-09-15T00:27:10,42.805,6.029,0.013,-0.02,0.022,101.0,102.0,97.0,13.3,1505.3,325.8,-0.7,1.8,2470.1,13.33,0.023,147.0
2019-09-15T00:30:11,42.805,6.029,-0.023,-0.034,0.005,101.0,102.0,99.0,13.4,1505.3,322.9,-0.7,1.8,2470.113,13.33,0.041,214.1
2019-09-15T00:33:12,42.805,6.029,-0.04,-0.019,-0.046,100.0,103.0,98.0,13.3,1505.3,326.8,-0.7,1.8,2470.108,13.33,0.044,244.6
2019-09-15T00:36:13,42.805,6.029,-0.037,-0.008,-0.012,99.0,103.0,98.0,13.4,1505.3,325.0,-0.7,1.9,2470.114,13.33,0.037,257.8
2019-09-15T00:39:14,42.805,6.029,-0.016,-0.008,-0.003,100.0,102.0,99.0,13.4,1505.3,324.3,-0.7,1.8,2470.108,13.33,0.017,243.4
2019-09-15T00:42:15,42.805,6.029,0.009,-0.012,0.009,99.0,102.0,98.0,13.4,1505.3,328.2,-0.7,1.9,2470.098,13.33,0.015,143.1
2019-09-15T00:45:16,42.805,6.029,-0.016,-0.027,-0.025,100.0,103.0,98.0,13.4,1505.3,324.4,-0.7,1.8,2470.095,13.33,0.031,210.7
2019-09-15T00:48:17,42.805,6.029,0.003,-0.052,-0.024,100.0,102.0,98.0,13.3,1505.3,326.6,-0.7,1.8,2470.067,13.33,0.052,176.7
2019-09-15T00:51:18,42.805,6.029,-0.011,-0.019,-0.017,99.0,103.0,97.0,13.4,1505.3,324.8,-0.8,1.8,2470.111,13.33,0.021,210.1
2019-09-15T00:54:19,42.805,6.029,-0.034,-0.006,-0.016,100.0,102.0,99.0,13.3,1505.3,326.9,-0.7,1.8,2470.075,13.33,0.034,260.0
2019-09-15T00:57:20,42.805,6.029,-0.056,-0.022,-0.047,100.0,101.0,98.0,13.4,1505.3,324.9,-0.7,1.8,2470.103,13.33,0.06,248.6
2019-09-15T01:00:21,42.805,6.029,-0.02,-0.023,-0.021,100.0,101.0,98.0,13.4,1505.3,326.4,-0.7,1.8,2470.065,13.33,0.03,221.0
2019-09-15T01:03:22,42.805,6.029,-0.039,-0.007,-0.033,100.0,101.0,98.0,13.4,1505.3,327.3,-0.7,1.8,2470.073,13.33,0.039,259.8
2019-09-15T01:06:23,42.805,6.029,-0.025,-0.021,0.002,100.0,102.0,99.0,13.4,1505.3,325.3,-0.7,1.8,2470.094,13.33,0.032,230.0
2019-09-15T01:09:24,42.805,6.029,-0.039,-0.01,-0.003,100.0,101.0,98.0,13.4,1505.3,326.0,-0.7,1.8,2470.039,13.33,0.04,255.6
2019-09-15T01:12:25,42.805,6.029,0.009,-0.014,0.0,101.0,103.0,97.0,13.4,1505.3,324.5,-0.7,1.8,2470.077,13.33,0.016,147.3
2019-09-15T01:15:26,42.805,6.029,0.013,-0.026,0.002,100.0,102.0,98.0,13.4,1505.3,324.5,-0.7,1.8,2470.04,13.33,0.029,153.4
2019-09-15T01:18:27,42.805,6.029,-0.008,-0.028,-0.011,101.0,103.0,98.0,13.4,1505.3,326.4,-0.7,1.8,2470.03,13.33,0.029,195.9
2019-09-15T01:21:28,42.805,6.029,-0.014,0.002,-0.006,100.0,104.0,98.0,13.4,1505.3,325.3,-0.7,1.8,2470.089,13.33,0.014,278.1
2019-09-15T01:24:29,42.805,6.029,0.001,-0.001,-0.024,100.0,103.0,98.0,13.4,1505.3,324.9,-0.7,1.8,2470.081,13.33,0.001,135.0
2019-09-15T01:27:30,42.805,6.029,0.024,-0.017,0.01,99.0,103.0,97.0,13.4,1505.3,327.2,-0.7,1.8,2470.044,13.33,0.029,125.3
2019-09-15T01:30:31,42.805,6.029,0.001,-0.015,-0.01,102.0,103.0,98.0,13.4,1505.3,327.4,-0.7,1.8,2470.056,13.33,0.015,176.2
2019-09-15T01:33:32,42.805,6.029,-0.02,-0.013,-0.015,100.0,106.0,99.0,13.4,1505.3,326.4,-0.7,1.8,2470.048,13.33,0.023,237.0
2019-09-15T01:36:33,42.805,6.029,-0.011,-0.022,-0.005,101.0,103.0,98.0,13.3,1505.3,324.5,-0.7,1.8,2470.063,13.33,0.024,206.6
2019-09-15T01:39:34,42.805,6.029,-0.016,-0.032,-0.014,100.0,103.0,98.0,13.4,1505.3,325.2,-0.7,1.8,2470.079,13.33,0.035,206.6
2019-09-15T01:42:35,42.805,6.029,-0.026,-0.02,-0.05,99.0,104.0,98.0,13.4,1505.3,326.0,-0.6,1.8,2470.058,13.33,0.032,232.4
2019-09-15T01:45:36,42.805,6.029,-0.033,-0.008,0.022,100.0,101.0,98.0,13.4,1505.3,323.7,-0.7,1.8,2469.992,13.33,0.033,256.4
2019-09-15T01:48:37,42.805,6.029,-0.024,-0.028,-0.019,100.0,103.0,97.0,13.3,1505.3,324.8,-0.7,1.8,2470.018,13.33,0.036,220.6
2019-09-15T01:51:38,42.805,6.029,-0.028,-0.03,-0.074,100.0,102.0,99.0,13.3,1505.3,327.8,-0.7,1.8,2470.016,13.33,0.041,223.0
2019-09-15T01:54:39,42.805,6.029,-0.041,-0.034,-0.056,97.0,104.0,99.0,13.3,1505.3,326.9,-0.7,1.8,2470.031,13.33,0.053,230.3
2019-09-15T01:57:40,42.805,6.029,-0.046,-0.022,-0.027,100.0,103.0,97.0,13.3,1505.3,325.8,-0.7,1.8,2470.017,13.33,0.05,244.4
2019-09-15T02:00:41,42.805,6.029,-0.083,-0.023,-0.062,101.0,103.0,98.0,13.3,1505.3,324.9,-0.7,1.8,2470.048,13.33,0.086,254.5
2019-09-15T02:03:42,42.805,6.029,-0.036,-0.017,-0.047,98.0,105.0,98.0,13.4,1505.3,326.5,-0.7,1.9,2470.08,13.33,0.039,244.7
2019-09-15T02:06:43,42.805,6.029,-0.094,-0.034,-0.096,100.0,103.0,97.0,13.4,1505.3,325.0,-0.7,1.8,2470.014,13.33,0.099,250.1
2019-09-15T02:09:44,42.805,6.029,-0.025,-0.021,-0.028,101.0,103.0,98.0,13.4,1505.3,328.4,-0.7,1.8,2470.05,13.33,0.032,230.0
2019-09-15T02:12:45,42.805,6.029,-0.032,-0.03,-0.062,100.0,104.0,98.0,13.4,1505.3,324.6,-0.7,1.8,2470.062,13.33,0.043,226.9
2019-09-15T02:15:46,42.805,6.029,-0.051,-0.009,-0.049,101.0,103.0,97.0,13.3,1505.3,326.4,-0.8,1.8,2470.012,13.33,0.051,260.0
2019-09-15T02:18:47,42.805,6.029,-0.024,-0.025,-0.053,100.0,103.0,97.0,13.3,1505.3,325.7,-0.7,1.8,2470.042,13.33,0.034,223.8
2019-09-15T02:21:48,42.805,6.029,-0.059,-0.031,-0.051,99.0,103.0,99.0,13.4,1505.3,324.3,-0.7,1.8,2470.022,13.33,0.066,242.3
2019-09-15T02:24:49,42.805,6.029,-0.018,-0.024,-0.042,99.0,103.0,98.0,13.4,1505.3,324.3,-0.7,1.8,2469.989,13.33,0.03,216.9
2019-09-15T02:27:50,42.805,6.029,0.013,0.02,0.029,101.0,104.0,97.0,13.4,1505.3,327.0,-0.7,1.8,2469.975,13.33,0.023,33.0
2019-09-15T02:30:51,42.805,6.029,0.004,0.016,0.041,100.0,104.0,98.0,13.4,1505.3,327.7,-0.7,1.8,2470.029,13.33,0.016,14.0
2019-09-15T02:33:52,42.805,6.029,0.025,0.007,0.015,100.0,104.0,99.0,13.4,1505.3,324.4,-0.7,1.8,2470.0,13.33,0.025,74.4
2019-09-15T02:36:53,42.805,6.029,0.02,-0.021,0.022,100.0,103.0,99.0,13.4,1505.3,325.2,-0.7,1.8,2469.993,13.33,0.028,136.4
2019-09-15T02:39:54,42.805,6.029,-0.006,0.0,0.023,99.0,104.0,98.0,13.4,1505.3,324.0,-0.7,1.9,2469.999,13.33,0.006,270.0
2019-09-15T02:42:55,42.805,6.029,0.023,-0.021,0.017,99.0,105.0,99.0,13.3,1505.3,325.2,-0.7,1.8,2470.029,13.33,0.031,132.4
2019-09-15T02:45:56,42.805,6.029,0.005,-0.006,0.014,100.0,105.0,98.0,13.4,1505.3,327.0,-0.7,1.8,2469.999,13.33,0.007,140.2
2019-09-15T02:48:57,42.805,6.029,-0.004,-0.002,0.018,100.0,105.0,98.0,13.3,1505.3,325.8,-0.7,1.8,2470.046,13.33,0.004,243.4
2019-09-15T02:51:58,42.805,6.029,0.026,-0.005,0.008,99.0,103.0,99.0,13.3,1505.3,327.2,-0.7,1.8,2470.008,13.33,0.026,100.9
2019-09-15T02:54:59,42.805,6.029,0.004,-0.006,0.011,100.0,105.0,97.0,13.4,1505.3,326.7,-0.7,1.8,2470.026,13.33,0.007,146.3
2019-09-15T02:58:00,42.805,6.029,0.008,-0.022,0.028,100.0,103.0,98.0,13.4,1505.3,325.8,-0.7,1.9,2470.054,13.33,0.023,160.0
2019-09-15T03:01:01,42.805,6.029,0.007,-0.007,0.049,99.0,103.0,98.0,13.4,1505.3,326.0,-0.7,1.8,2469.994,13.33,0.009,135.0
2019-09-15T03:04:02,42.805,6.029,0.019,-0.016,0.028,100.0,104.0,97.0,13.3,1505.3,325.0,-0.7,1.8,2469.997,13.33,0.024,130.1
2019-09-15T03:07:03,42.805,6.029,0.025,-0.012,0.011,99.0,104.0,98.0,13.4,1505.3,323.7,-0.7,1.8,2470.039,13.33,0.027,115.6
2019-09-15T03:10:04,42.805,6.029,0.038,-0.018,0.023,100.0,103.0,98.0,13.4,1505.3,324.1,-0.7,1.8,2470.021,13.33,0.042,115.3
2019-09-15T03:13:05,42.805,6.029,0.034,-0.006,0.02,101.0,104.0,97.0,13.4,1505.3,325.5,-0.7,1.8,2470.046,13.33,0.034,100.0
2019-09-15T03:16:06,42.805,6.029,0.045,-0.025,0.006,99.0,103.0,98.0,13.4,1505.3,323.8,-0.6,1.9,2469.97,13.33,0.051,119.1
2019-09-15T03:19:07,42.805,6.029,0.014,-0.026,0.008,101.0,104.0,98.0,13.3,1505.4,327.4,-0.7,1.8,2470.046,13.34,0.029,151.7
2019-09-15T03:22:08,42.805,6.029,0.0,-0.022,-0.003,101.0,107.0,97.0,13.4,1505.3,327.6,-0.7,1.8,2470.036,13.33,0.022,180.0
2019-09-15T03:25:09,42.805,6.029,-0.023,-0.017,-0.043,100.0,103.0,97.0,13.4,1505.3,328.6,-0.7,1.9,2469.991,13.33,0.028,233.5
2019-09-15T03:28:10,42.805,6.029,-0.023,-0.028,-0.024,99.0,102.0,98.0,13.4,1505.3,327.9,-0.7,1.8,2470.025,13.33,0.036,219.4
2019-09-15T03:31:11,42.805,6.029,0.01,-0.008,-0.005,98.0,102.0,99.0,13.3,1505.3,326.5,-0.7,1.8,2470.0,13.33,0.012,128.7
2019-09-15T03:34:12,42.805,6.029,-0.031,-0.007,-0.023,100.0,102.0,98.0,13.3,1505.3,324.6,-0.7,1.8,2470.046,13.33,0.031,257.3
2019-09-15T03:37:13,42.805,6.029,0.023,-0.005,0.013,98.0,103.0,97.0,13.4,1505.3,325.0,-0.7,1.9,2470.028,13.33,0.023,102.3
2019-09-15T03:40:14,42.805,6.029,0.042,-0.014,0.019,99.0,103.0,98.0,13.4,1505.3,326.1,-0.7,1.8,2470.009,13.33,0.044,108.4
2019-09-15T03:43:15,42.805,6.029,-0.004,-0.019,0.009,100.0,102.0,98.0,13.3,1505.3,323.8,-0.7,1.8,2470.067,13.33,0.019,191.9
2019-09-15T03:46:16,42.805,6.029,-0.004,-0.005,0.028,100.0,100.0,98.0,13.4,1505.3,324.8,-0.7,1.8,2470.036,13.33,0.006,218.7
2019-09-15T03:49:17,42.805,6.029,0.002,-0.02,-0.008,98.0,105.0,98.0,13.4,1505.3,326.4,-0.7,1.8,2470.053,13.33,0.02,174.3
2019-09-15T03:52:18,42.805,6.029,-0.019,0.002,-0.031,99.0,104.0,99.0,13.4,1505.3,326.9,-0.7,1.8,2470.052,13.33,0.019,276.0
2019-09-15T03:55:19,42.805,6.029,0.03,-0.013,0.011,100.0,102.0,98.0,13.4,1505.3,323.6,-0.7,1.8,2470.013,13.33,0.032,113.4
2019-09-15T03:58:20,42.805,6.029,0.019,-0.018,0.007,99.0,104.0,97.0,13.4,1505.3,325.7,-0.7,1.8,2470.019,13.33,0.026,133.5
2019-09-15T04:01:21,42.805,6.029,0.011,-0.017,0.004,101.0,103.0,101.0,13.4,1505.3,327.6,-0.7,1.8,2469.986,13.33,0.02,147.1
2019-09-15T04:04:22,42.805,6.029,-0.017,-0.032,-0.014,100.0,105.0,98.0,13.4,1505.3,328.3,-0.7,1.8,2470.065,13.33,0.036,208.0
2019-09-15T04:07:23,42.805,6.029,0.002,-0.016,0.021,100.0,105.0,98.0,13.4,1505.3,328.5,-0.7,1.8,2470.069,13.33,0.016,172.9
2019-09-15T04:10:24,42.805,6.029,-0.007,-0.024,0.011,99.0,103.0,98.0,13.4,1505.3,327.7,-0.8,1.8,2470.016,13.33,0.025,196.3
2019-09-15T04:13:25,42.805,6.029,0.003,-0.012,-0.022,99.0,105.0,97.0,13.3,1505.3,327.7,-0.7,1.8,2470.086,13.33,0.012,166.0
2019-09-15T04:16:26,42.805,6.029,-0.005,-0.029,-0.029,100.0,104.0,98.0,13.4,1505.3,324.3,-0.7,1.8,2470.039,13.33,0.029,189.8
2019-09-15T04:19:27,42.805,6.029,-0.045,-0.025,-0.049,99.0,104.0,98.0,13.4,1505.3,325.4,-0.7,1.8,2470.044,13.33,0.051,240.9
2019-09-15T04:22:28,42.805,6.029,0.006,-0.004,0.004,100.0,104.0,98.0,13.4,1505.3,326.9,-0.7,1.8,2470.047,13.33,0.007,123.7
2019-09-15T04:25:29,42.805,6.029,-0.052,-0.034,-0.104,98.0,103.0,99.0,13.4,1505.3,324.5,-0.7,1.8,2470.058,13.33,0.062,236.8
2019-09-15T04:28:30,42.805,6.029,0.03,-0.046,-0.012,100.0,103.0,99.0,13.3,1505.3,325.8,-0.7,1.8,2470.029,13.33,0.054,146.9
2019-09-15T04:31:31,42.805,6.029,-0.016,-0.025,-0.059,100.0,105.0,98.0,13.3,1505.3,327.2,-0.7,1.8,2470.047,13.33,0.029,212.6
2019-09-15T04:34:32,42.805,6.029,-0.036,-0.005,-0.003,100.0,103.0,98.0,13.4,1505.3,324.4,-0.7,1.8,2470.071,13.33,0.036,262.1
2019-09-15T04:37:33,42.805,6.029,-0.011,-0.027,-0.028,100.0,104.0,97.0,13.4,1505.3,326.5,-0.7,1.9,2470.087,13.33,0.029,202.2
2019-09-15T04:40:34,42.805,6.029,0.019,-0.018,0.008,101.0,103.0,97.0,13.4,1505.3,325.2,-0.7,1.9,2470.07,13.33,0.026,133.5
2019-09-15T04:43:35,42.805,6.029,0.04,0.006,0.052,102.0,104.0,97.0,13.4,1505.3,328.4,-0.7,1.8,2470.027,13.33,0.04,81.5
2019-09-15T04:46:36,42.805,6.029,0.023,-0.017,0.0,101.0,104.0,98.0,13.4,1505.3,326.4,-0.7,1.8,2470.067,13.33,0.028,126.5
2019-09-15T04:49:37,42.805,6.029,0.019,0.004,0.021,100.0,103.0,98.0,13.4,1505.3,324.5,-0.7,1.8,2470.089,13.33,0.019,78.1
2019-09-15T04:52:38,42.805,6.029,0.009,-0.004,0.018,100.0,105.0,98.0,13.4,1505.3,327.9,-0.8,1.8,2470.084,13.33,0.009,114.0
2019-09-15T04:55:39,42.805,6.029,0.021,-0.015,0.016,99.0,104.0,98.0,13.4,1505.3,325.8,-0.7,1.8,2470.07,13.33,0.025,125.5
2019-09-15T04:58:40,42.805,6.029,-0.002,-0.01,-0.023,100.0,106.0,98.0,13.4,1505.3,324.5,-0.7,1.9,2470.07,13.33,0.01,191.3
2019-09-15T05:01:41,42.805,6.029,0.019,-0.004,0.028,101.0,105.0,97.0,13.4,1505.3,325.7,-0.7,1.8,2470.082,13.33,0.019,101.9
2019-09-15T05:04:42,42.805,6.029,0.007,-0.02,-0.019,100.0,104.0,98.0,13.4,1505.3,324.5,-0.7,1.8,2470.12,13.33,0.021,160.7
2019-09-15T05:07:43,42.805,6.029,0.013,0.012,0.018,99.0,106.0,97.0,13.4,1505.3,327.9,-0.7,1.9,2470.122,13.33,0.017,47.3
2019-09-15T05:10:44,42.805,6.029,0.034,0.0,0.035,101.0,103.0,97.0,13.4,1505.3,325.5,-0.7,1.8,2470.079,13.33,0.034,90.0
2019-09-15T05:13:45,42.805,6.029,0.003,-0.01,-0.013,101.0,102.0,98.0,13.3,1505.3,323.8,-0.7,1.9,2470.045,13.33,0.01,163.3
2019-09-15T05:16:46,42.805,6.029,-0.011,-0.015,-0.011,101.0,103.0,98.0,13.4,1505.3,323.0,-0.7,1.8,2470.048,13.33,0.018,216.3
2019-09-15T05:19:47,42.805,6.029,0.035,-0.018,0.022,102.0,104.0,97.0,13.3,1505.3,327.1,-0.7,1.8,2470.089,13.33,0.039,117.2
2019-09-15T05:22:48,42.805,6.029,-0.012,-0.01,-0.047,99.0,104.0,99.0,13.4,1505.3,327.9,-0.7,1.8,2470.096,13.33,0.015,230.2
2019-09-15T05:25:49,42.805,6.029,-0.011,-0.008,0.0,101.0,103.0,98.0,13.4,1505.3,327.9,-0.7,1.9,2470.118,13.33,0.013,234.0
2019-09-15T05:28:50,42.805,6.029,-0.009,-0.018,0.003,99.0,103.0,98.0,13.4,1505.3,326.8,-0.7,1.8,2470.088,13.33,0.02,206.6
2019-09-15T05:31:51,42.805,6.029,0.044,-0.01,0.035,101.0,102.0,97.0,13.4,1505.3,326.6,-0.7,1.8,2470.125,13.33,0.045,102.8
2019-09-15T05:34:52,42.805,6.029,0.034,-0.028,0.031,100.0,103.0,98.0,13.4,1505.3,328.5,-0.7,1.8,2470.099,13.33,0.044,129.5
2019-09-15T05:37:53,42.805,6.029,-0.031,-0.03,-0.036,100.0,103.0,98.0,13.4,1505.3,323.5,-0.7,1.8,2470.079,13.33,0.043,225.9
2019-09-15T05:40:54,42.805,6.029,-0.043,-0.038,-0.078,100.0,101.0,98.0,13.4,1505.3,328.2,-0.7,1.8,2470.129,13.33,0.057,228.5
2019-09-15T05:43:55,42.805,6.029,-0.058,-0.021,-0.091,100.0,102.0,98.0,13.4,1505.3,325.0,-0.7,1.8,2470.11,13.33,0.061,250.1
2019-09-15T05:46:56,42.805,6.029,-0.024,-0.011,-0.051,100.0,101.0,98.0,13.4,1505.3,323.4,-0.7,1.8,2470.081,13.33,0.026,245.4
2019-09-15T05:49:57,42.805,6.029,0.001,-0.015,-0.009,101.0,102.0,97.0,13.4,1505.3,324.3,-0.7,1.8,2470.14,13.33,0.015,176.2
2019-09-15T05:52:58,42.805,6.029,-0.039,-0.029,-0.084,100.0,102.0,97.0,13.4,1505.3,327.3,-0.7,1.8,2470.118,13.33,0.048,233.4
2019-09-15T05:55:59,42.805,6.029,-0.023,-0.036,-0.034,101.0,102.0,97.0,13.4,1505.3,324.5,-0.7,1.8,2470.149,13.33,0.042,212.6
2019-09-15T05:59:00,42.805,6.029,-0.028,-0.017,-0.041,100.0,102.0,98.0,13.4,1505.3,326.5,-0.8,1.8,2470.09,13.33,0.032,238.7
2019-09-15T06:02:01,42.805,6.029,-0.033,-0.019,-0.011,100.0,101.0,98.0,13.4,1505.3,325.4,-0.7,1.8,2470.138,13.33,0.038,240.1
2019-09-15T06:05:02,42.805,6.029,0.02,-0.029,-0.007,101.0,102.0,98.0,13.4,1505.3,326.9,-0.7,1.9,2470.084,13.33,0.035,145.4
2019-09-15T06:08:03,42.805,6.029,0.03,-0.023,0.029,101.0,102.0,98.0,13.3,1505.3,323.6,-0.7,1.8,2470.124,13.33,0.037,127.5
2019-09-15T06:11:04,42.805,6.029,0.024,-0.007,0.019,100.0,102.0,98.0,13.3,1505.3,325.5,-0.7,1.8,2470.168,13.33,0.025,106.3
2019-09-15T06:14:05,42.805,6.029,0.008,-0.019,-0.026,99.0,104.0,98.0,13.4,1505.3,324.5,-0.7,1.8,2470.183,13.33,0.02,157.2
2019-09-15T06:17:06,42.805,6.029,0.026,-0.001,-0.001,101.0,102.0,100.0,13.4,1505.3,324.5,-0.7,1.8,2470.124,13.33,0.026,92.2
2019-09-15T06:20:07,42.805,6.029,0.017,-0.013,-0.003,100.0,103.0,99.0,13.4,1505.3,323.4,-0.7,1.9,2470.119,13.33,0.021,127.4
2019-09-15T06:23:08,42.805,6.029,0.003,-0.035,-0.004,99.0,103.0,98.0,13.4,1505.3,328.1,-0.7,1.9,2470.182,13.33,0.035,175.1
2019-09-15T06:26:09,42.805,6.029,0.013,-0.015,-0.013,101.0,102.0,98.0,13.4,1505.3,325.7,-0.7,1.8,2470.133,13.33,0.019,139.1
2019-09-15T06:29:10,42.805,6.029,0.037,-0.015,0.02,101.0,103.0,98.0,13.4,1505.3,326.9,-0.7,1.8,2470.147,13.33,0.039,112.1
2019-09-15T06:32:11,42.805,6.029,0.049,-0.01,0.068,100.0,103.0,98.0,13.3,1505.3,324.1,-0.7,1.8,2470.124,13.33,0.05,101.5
2019-09-15T06:35:12,42.805,6.029,0.024,-0.021,-0.038,100.0,104.0,98.0,13.4,1505.3,327.9,-0.8,1.9,2470.14,13.33,0.031,131.2
2019-09-15T06:38:13,42.805,6.029,-0.01,0.002,-0.014,100.0,104.0,98.0,13.4,1505.3,328.4,-0.7,1.8,2470.149,13.33,0.01,281.3
2019-09-15T06:41:14,42.805,6.029,0.002,-0.013,-0.016,102.0,104.0,97.0,13.3,1505.3,328.6,-0.7,1.9,2470.164,13.33,0.013,171.3
2019-09-15T06:44:15,42.805,6.029,0.046,-0.034,0.021,101.0,105.0,97.0,13.4,1505.3,328.0,-0.7,1.8,2470.167,13.33,0.057,126.5
2019-09-15T06:47:16,42.805,6.029,0.02,-0.007,0.011,99.0,104.0,97.0,13.4,1505.3,328.6,-0.7,1.8,2470.168,13.33,0.021,109.3
2019-09-15T06:50:17,42.805,6.029,0.029,-0.019,-0.003,99.0,104.0,98.0,13.4,1505.3,325.3,-0.7,1.8,2470.173,13.33,0.034,123.2
2019-09-15T06:53:18,42.805,6.029,-0.001,-0.022,-0.025,100.0,104.0,97.0,13.4,1505.3,327.8,-0.7,1.8,2470.16,13.33,0.022,182.6
2019-09-15T06:56:19,42.805,6.029,-0.04,-0.016,-0.035,101.0,102.0,97.0,13.3,1505.3,324.6,-0.7,1.8,2470.154,13.33,0.043,248.2
2019-09-15T06:59:20,42.805,6.029,0.011,-0.016,0.008,100.0,104.0,97.0,13.4,1505.3,325.1,-0.7,1.8,2470.176,13.33,0.019,145.5
2019-09-15T07:02:21,42.805,6.029,-0.008,-0.011,-0.016,100.0,105.0,98.0,13.4,1505.3,324.1,-0.7,1.8,2470.124,13.33,0.013,216.0
2019-09-15T07:05:22,42.805,6.029,0.02,-0.02,-0.002,100.0,104.0,98.0,13.4,1505.3,325.4,-0.7,1.8,2470.192,13.33,0.028,135.0
2019-09-15T07:08:23,42.805,6.029,0.006,-0.02,-0.014,101.0,105.0,97.0,13.4,1505.3,324.7,-0.7,1.8,2470.157,13.33,0.02,163.3
2019-09-15T07:11:24,42.805,6.029,0.029,-0.011,-0.002,100.0,105.0,98.0,13.4,1505.3,326.2,-0.7,1.8,2470.155,13.33,0.031,110.8
2019-09-15T07:14:25,42.805,6.029,0.026,-0.03,-0.012,99.0,106.0,97.0,13.4,1505.3,326.6,-0.7,1.9,2470.182,13.33,0.039,139.1
2019-09-15T07:17:26,42.805,6.029,0.003,-0.021,0.0,99.0,106.0,99.0,13.3,1505.3,326.5,-0.7,1.8,2470.195,13.33,0.021,171.9
2019-09-15T07:20:27,42.805,6.029,0.029,-0.036,0.01,100.0,105.0,97.0,13.4,1505.3,322.8,-0.7,1.8,2470.137,13.33,0.046,141.1
2019-09-15T07:23:28,42.805,6.029,0.021,-0.031,0.009,99.0,105.0,99.0,13.4,1505.3,327.8,-0.7,1.8,2470.2,13.33,0.037,145.9
2019-09-15T07:26:29,42.805,6.029,0.031,-0.027,0.031,100.0,105.0,98.0,13.4,1505.3,328.2,-0.7,1.8,2470.159,13.33,0.041,131.1
2019-09-15T07:29:30,42.805,6.029,0.043,-0.016,-0.019,99.0,104.0,98.0,13.4,1505.3,324.7,-0.7,1.9,2470.16,13.33,0.045,110.4
2019-09-15T07:32:31,42.805,6.029,0.034,-0.039,0.006,99.0,104.0,98.0,13.4,1505.3,324.9,-0.7,1.8,2470.157,13.33,0.051,138.9
2019-09-15T07:35:32,42.805,6.029,0.051,-0.01,0.055,100.0,104.0,99.0,13.3,1505.3,325.0,-0.7,1.8,2470.18,13.33,0.051,101.1
2019-09-15T07:38:33,42.805,6.029,-0.019,-0.023,-0.031,100.0,105.0,98.0,13.4,1505.3,324.4,-0.7,1.8,2470.186,13.33,0.029,219.6
2019-09-15T07:41:34,42.805,6.029,0.029,-0.03,0.011,100.0,104.0,96.0,13.3,1505.3,325.2,-0.7,1.8,2470.141,13.33,0.041,136.0
2019-09-15T07:44:35,42.805,6.029,0.05,-0.008,0.002,100.0,103.0,99.0,13.3,1505.3,325.5,-0.7,1.8,2470.22,13.33,0.05,99.1
2019-09-15T07:47:36,42.805,6.029,0.061,-0.019,0.035,102.0,104.0,97.0,13.3,1505.3,325.2,-0.7,1.8,2470.194,13.33,0.063,107.3
2019-09-15T07:50:37,42.805,6.029,0.034,-0.012,0.032,99.0,105.0,97.0,13.4,1505.3,324.2,-0.7,1.9,2470.171,13.33,0.036,109.4
2019-09-15T07:53:38,42.805,6.029,0.016,-0.002,0.008,99.0,102.0,97.0,13.4,1505.3,326.6,-0.7,1.8,2470.118,13.33,0.016,97.1
2019-09-15T07:56:39,42.805,6.029,0.007,-0.019,-0.006,101.0,103.0,97.0,13.4,1505.3,324.5,-0.7,1.8,2470.175,13.33,0.02,159.8
2019-09-15T07:59:40,42.805,6.029,0.059,-0.02,0.024,100.0,104.0,96.0,13.4,1505.3,324.7,-0.7,1.8,2470.175,13.33,0.062,108.7
2019-09-15T08:02:41,42.805,6.029,-0.049,-0.006,-0.06,100.0,104.0,99.0,13.4,1505.3,323.5,-0.7,1.8,2470.212,13.33,0.049,263.0
2019-09-15T08:05:42,42.805,6.029,-0.019,-0.031,-0.075,100.0,104.0,98.0,13.3,1505.3,326.2,-0.7,1.8,2470.213,13.33,0.036,211.5
2019-09-15T08:08:43,42.805,6.029,-0.014,-0.042,-0.03,100.0,104.0,98.0,13.3,1505.3,324.7,-0.7,1.8,2470.224,13.33,0.044,198.4
2019-09-15T08:11:44,42.805,6.029,-0.048,-0.003,-0.052,101.0,103.0,98.0,13.3,1505.3,325.5,-0.7,1.8,2470.17,13.33,0.048,266.4
2019-09-15T08:14:45,42.805,6.029,0.0,-0.023,-0.019,99.0,104.0,99.0,13.4,1505.3,327.6,-0.7,1.8,2470.159,13.33,0.023,180.0
2019-09-15T08:17:46,42.805,6.029,0.022,-0.024,0.009,100.0,106.0,97.0,13.3,1505.3,324.4,-0.7,1.8,2470.201,13.33,0.032,137.5
2019-09-15T08:20:47,42.805,6.029,-0.007,-0.017,-0.004,100.0,105.0,99.0,13.3,1505.3,325.3,-0.7,1.8,2470.207,13.33,0.018,202.4
2019-09-15T08:23:48,42.805,6.029,-0.015,-0.034,-0.031,101.0,104.0,99.0,13.4,1505.3,326.0,-0.7,1.8,2470.171,13.33,0.037,203.8
2019-09-15T08:26:49,42.805,6.029,0.046,-0.033,0.033,100.0,104.0,99.0,13.3,1505.3,325.2,-0.7,1.8,2470.185,13.33,0.056,125.7
2019-09-15T08:29:50,42.805,6.029,0.012,-0.02,-0.01,100.0,105.0,98.0,13.4,1505.3,327.3,-0.7,1.9,2470.174,13.33,0.023,149.0
2019-09-15T08:32:51,42.805,6.029,-0.03,-0.036,-0.062,99.0,104.0,99.0,13.4,1505.3,324.5,-0.7,1.8,2470.182,13.33,0.046,219.8
2019-09-15T08:35:52,42.805,6.029,0.03,-0.029,-0.002,100.0,103.0,99.0,13.4,1505.3,323.2,-0.7,1.8,2470.208,13.33,0.041,134.0
2019-09-15T08:38:53,42.805,6.029,-0.002,-0.035,-0.043,100.0,104.0,97.0,13.4,1505.3,323.2,-0.7,1.8,2470.172,13.33,0.035,183.3
2019-09-15T08:41:54,42.805,6.029,0.028,-0.027,-0.001,100.0,104.0,98.0,13.3,1505.3,327.8,-0.7,1.8,2470.175,13.33,0.038,134.0
2019-09-15T08:44:55,42.805,6.029,0.035,-0.039,0.003,101.0,104.0,98.0,13.4,1505.3,323.2,-0.7,1.9,2470.195,13.33,0.052,138.1
2019-09-15T08:47:56,42.805,6.029,0.007,-0.026,-0.025,99.0,104.0,97.0,13.4,1505.3,326.5,-0.7,1.9,2470.157,13.33,0.026,164.9
2019-09-15T08:50:57,42.805,6.029,0.015,-0.028,-0.014,99.0,105.0,98.0,13.4,1505.3,328.2,-0.7,1.8,2470.188,13.33,0.031,151.8
2019-09-15T08:53:58,42.805,6.029,0.026,-0.019,0.007,100.0,105.0,98.0,13.4,1505.3,326.8,-0.8,1.8,2470.166,13.33,0.032,126.2
2019-09-15T08:56:59,42.805,6.029,0.008,-0.039,-0.025,101.0,104.0,99.0,13.3,1505.3,326.4,-0.7,1.8,2470.158,13.33,0.039,168.4
2019-09-15T09:00:00,42.805,6.029,0.007,-0.028,-0.042,101.0,104.0,99.0,13.4,1505.3,326.2,-0.7,1.8,2470.202,13.33,0.028,166.0
2019-09-15T09:03:01,42.805,6.029,-0.014,-0.043,-0.045,101.0,105.0,98.0,13.4,1505.3,326.0,-0.7,1.8,2470.127,13.33,0.045,198.0
2019-09-15T09:06:02,42.805,6.029,0.01,-0.033,-0.014,100.0,105.0,98.0,13.3,1505.3,326.3,-0.7,1.9,2470.177,13.33,0.034,163.1
2019-09-15T09:09:03,42.805,6.029,0.013,-0.03,-0.048,100.0,102.0,98.0,13.3,1505.3,326.4,-0.7,1.9,2470.177,13.33,0.032,156.6
2019-09-15T09:12:04,42.805,6.029,0.004,-0.03,0.012,100.0,105.0,98.0,13.3,1505.3,328.4,-0.7,1.8,2470.159,13.33,0.03,172.4
2019-09-15T09:15:05,42.805,6.029,-0.008,-0.03,-0.044,102.0,105.0,98.0,13.4,1505.3,326.3,-0.7,1.8,2470.153,13.33,0.031,194.9
2019-09-15T09:18:06,42.805,6.029,0.012,-0.023,-0.02,101.0,103.0,99.0,13.4,1505.3,326.4,-0.7,1.8,2470.129,13.33,0.025,152.4
2019-09-15T09:21:07,42.805,6.029,0.031,-0.039,0.017,100.0,106.0,98.0,13.3,1505.3,324.7,-0.7,1.8,2470.177,13.33,0.049,141.5
2019-09-15T09:24:08,42.805,6.029,0.026,-0.026,0.023,102.0,104.0,98.0,13.4,1505.3,325.0,-0.7,1.8,2470.116,13.33,0.036,135.0
2019-09-15T09:27:09,42.805,6.029,0.008,-0.008,-0.004,101.0,102.0,98.0,13.4,1505.3,323.6,-0.7,1.8,2470.159,13.33,0.011,135.0
2019-09-15T09:30:10,42.805,6.029,0.03,-0.016,0.013,100.0,103.0,98.0,13.4,1505.3,325.7,-0.7,1.9,2470.111,13.33,0.034,118.1
2019-09-15T09:33:11,42.805,6.029,0.021,-0.031,0.011,102.0,103.0,99.0,13.4,1505.3,328.1,-0.7,1.8,2470.098,13.33,0.037,145.9
2019-09-15T09:36:12,42.805,6.029,0.079,-0.02,0.057,101.0,103.0,98.0,13.4,1505.3,325.2,-0.7,1.8,2470.137,13.33,0.081,104.2
2019-09-15T09:39:13,42.805,6.029,0.016,-0.01,0.014,100.0,104.0,98.0,13.3,1505.3,327.0,-0.7,1.9,2470.153,13.33,0.018,122.0
2019-09-15T09:42:14,42.805,6.029,0.046,-0.016,-0.015,104.0,104.0,99.0,13.4,1505.3,323.2,-0.7,1.8,2470.119,13.33,0.048,109.2